STARLINK-32359, 61957

Orbit data source: Space-Track

STARLINK-32359, 61957 is a payload satellite owned by SpaceX/Seattle (US) in LEO that was launched on Thu, 14 Nov 2024 UTC via an FALCON 9 launch vehicle from the Air Force Western Test Range (AFWTR). Payload-class satellites include a variety of spacecraft equipped with specific instruments for various scientific and technological missions. These include communications satellites like Starlink; space stations such as the ISS; scientific satellites like the Hubble; Earth observation satellites from companies like Planet Labs, Umbra, and HawkEye 360; GPS; miniature CubeSats for education and research; and military/defense satellites.

Loading next visibility...
Identifier
61957, 2024-209U
Orbit
LEO
Country
Flag of USUS
Related business
Manufacturer
SpaceX/Seattle
Mission
Operational Commercial Communications
Bus & Motor
STARLINK V2M, Unknown motor
Mass
730 kg wet, ~700 kg dry
Launch date (UTC)
2024-11-14 (2 years ago)
Launch vehicle
FALCON 9
Launch site
Air Force Western Test Range (AFWTR)
Object type
Payload
Rocket body
Debris
Shape & HBR
Box + 2 Pan, 17.7 m
Radar Cross Section
33.884 m², Large (>1 m²)

Expand to show TLE details & history
Last TLE update: 14 hours ago

TLE from 14 hours ago
0 STARLINK-32359
1 61957U 24209U   26171.28167307  .00042417  00000-0  76621-3 0  9999
2 61957  53.1594  20.2195 0000774  97.4545 262.6552 15.49322668 90708
Epoch: 2026-06-20T06:45Z
TLE epoch observation values (Epoch: 2026-06-20T06:45:36.553Z)
Latitude
-0.00001°
Longitude
10.31864°
Altitude
419.681 km
Speed
7.661 km/s
True Right ascension
01h 20m 52s
True Declination
0° 00' 00"
Sunlit
Object was in daylight at epoch
Visualization orbit readout
Latitude
Unknown
Longitude
Unknown
Altitude
Unknown
Speed
Unknown
Apparent Right ascension
Unknown
Apparent Declination
Unknown
Sunlit
N/A
Visualization observer readout
Local Sidereal Time
07:18:24
Azimuth
Unknown
Elevation
Unknown
Doppler factor
Unknown
Orbital elements
Apogee altitude
419.491 km
Perigee altitude
418.439 km
Semi-major axis
6,797.102 km
Eccentricity
0.00008
Inclination
53.1594°
RAAN
20.2195°
Arg. of periapsis
97.4545°
True anomaly
262.6464°
Mean anomaly
262.6552°
Eccentric anomaly
262.6508°
Mean motion
3.87309 °/min
Orbital period
92.95 mins
BSTAR
0.00076621
Loading maneuver chart data...
Computing Atmospheric mass density...
Loading historical data...
Loading historical data...
Loading historical data...
Loading historical data...
Loading historical data...
Loading historical data...
Loading historical data...

Documentation

Showing up to 5 results
|